Year,Month,Day,Hour,Minute,Value (Times are PST for windspeed in km/hr)
2008,02,08,00,00,27.50
2008,02,08,00,01,49.90
2008,02,08,00,02,45.20
2008,02,08,00,03,23.80
2008,02,08,00,04,22.50
2008,02,08,00,05,25.90
2008,02,08,00,06,18.90
2008,02,08,00,07,22.00
2008,02,08,00,08,25.70
2008,02,08,00,09,21.90
2008,02,08,00,10,19.00
2008,02,08,00,11,12.80
2008,02,08,00,12,16.20
2008,02,08,00,13,24.50
2008,02,08,00,14,31.20
2008,02,08,00,15,19.50
2008,02,08,00,16,11.50
2008,02,08,00,17,13.70
2008,02,08,00,18,15.90
2008,02,08,00,19,21.40
2008,02,08,00,20,15.80
2008,02,08,00,21,11.70
2008,02,08,00,22,18.20
2008,02,08,00,23,20.10
2008,02,08,00,24,15.60
2008,02,08,00,25,23.20
2008,02,08,00,26,24.70
2008,02,08,00,27,21.20
2008,02,08,00,28,19.20
2008,02,08,00,29,17.30
2008,02,08,00,30,19.80
2008,02,08,00,31,21.50
2008,02,08,00,32,17.90
2008,02,08,00,33,23.30
2008,02,08,00,34,23.80
2008,02,08,00,35,30.30
2008,02,08,00,36,34.10
2008,02,08,00,37,14.10
2008,02,08,00,38,28.80
2008,02,08,00,39,22.50
2008,02,08,00,40,22.90
2008,02,08,00,41,21.50
2008,02,08,00,42,24.10
2008,02,08,00,43,16.80
2008,02,08,00,44,18.70
2008,02,08,00,45,25.80
2008,02,08,00,46,18.80
2008,02,08,00,47,23.60
2008,02,08,00,48,23.70
2008,02,08,00,49,16.80
2008,02,08,00,50,14.70
2008,02,08,00,51,18.80
2008,02,08,00,52,24.00
2008,02,08,00,53,20.80
2008,02,08,00,54,14.00
2008,02,08,00,55,9.60
2008,02,08,00,56,8.80
2008,02,08,00,57,6.40
2008,02,08,00,58,11.10
2008,02,08,00,59,19.40
2008,02,08,01,00,21.40
2008,02,08,01,01,25.40
2008,02,08,01,02,16.90
2008,02,08,01,03,17.10
2008,02,08,01,04,17.00
2008,02,08,01,05,16.60
2008,02,08,01,06,13.30
2008,02,08,01,07,18.40
2008,02,08,01,08,19.20
2008,02,08,01,09,20.80
2008,02,08,01,10,16.00
2008,02,08,01,11,14.70
2008,02,08,01,12,22.40
2008,02,08,01,13,19.50
2008,02,08,01,14,19.90
2008,02,08,01,15,20.70
2008,02,08,01,16,10.00
2008,02,08,01,17,11.50
2008,02,08,01,18,14.80
2008,02,08,01,19,17.20
2008,02,08,01,20,19.30
2008,02,08,01,21,29.40
2008,02,08,01,22,20.70
2008,02,08,01,23,15.60
2008,02,08,01,24,13.50
2008,02,08,01,25,19.40
2008,02,08,01,26,13.20
2008,02,08,01,27,13.00
2008,02,08,01,28,13.10
2008,02,08,01,29,15.90
2008,02,08,01,30,19.90
2008,02,08,01,31,24.20
2008,02,08,01,32,11.50
2008,02,08,01,33,19.60
2008,02,08,01,34,10.70
2008,02,08,01,35,10.40
2008,02,08,01,36,12.80
2008,02,08,01,37,28.90
2008,02,08,01,38,20.80
2008,02,08,01,39,18.60
2008,02,08,01,40,19.00
2008,02,08,01,41,18.50
2008,02,08,01,42,5.80
2008,02,08,01,43,5.30
2008,02,08,01,44,11.40
2008,02,08,01,45,20.00
2008,02,08,01,46,11.30
2008,02,08,01,47,11.30
2008,02,08,01,48,19.00
2008,02,08,01,49,17.60
2008,02,08,01,50,18.70
2008,02,08,01,51,13.80
2008,02,08,01,52,19.80
2008,02,08,01,53,17.40
2008,02,08,01,54,13.30
2008,02,08,01,55,25.50
2008,02,08,01,56,24.00
2008,02,08,01,57,19.90
2008,02,08,01,58,17.70
2008,02,08,01,59,24.10
2008,02,08,02,00,17.10
2008,02,08,02,01,17.50
2008,02,08,02,02,31.60
2008,02,08,02,03,23.80
2008,02,08,02,04,7.80
2008,02,08,02,05,15.40
2008,02,08,02,06,30.60
2008,02,08,02,07,15.90
2008,02,08,02,08,11.20
2008,02,08,02,09,8.90
2008,02,08,02,10,13.70
2008,02,08,02,11,16.90
2008,02,08,02,12,18.20
2008,02,08,02,13,16.90
2008,02,08,02,14,22.50
2008,02,08,02,15,18.60
2008,02,08,02,16,16.30
2008,02,08,02,17,23.70
2008,02,08,02,18,16.90
2008,02,08,02,19,17.40
2008,02,08,02,20,19.10
2008,02,08,02,21,16.60
2008,02,08,02,22,15.20
2008,02,08,02,23,12.10
2008,02,08,02,24,9.00
2008,02,08,02,25,14.20
2008,02,08,02,26,20.70
2008,02,08,02,27,20.00
2008,02,08,02,28,17.00
2008,02,08,02,29,25.30
2008,02,08,02,30,17.60
2008,02,08,02,31,17.80
2008,02,08,02,32,21.40
2008,02,08,02,33,20.80
2008,02,08,02,34,19.10
2008,02,08,02,35,11.20
2008,02,08,02,36,7.90
2008,02,08,02,37,19.00
2008,02,08,02,38,18.30
2008,02,08,02,39,16.90
2008,02,08,02,40,17.30
2008,02,08,02,41,23.60
2008,02,08,02,42,27.50
2008,02,08,02,43,17.70
2008,02,08,02,44,18.10
2008,02,08,02,45,22.00
2008,02,08,02,46,22.30
2008,02,08,02,47,15.50
2008,02,08,02,48,16.30
2008,02,08,02,49,20.30
2008,02,08,02,50,21.10
2008,02,08,02,51,11.50
2008,02,08,02,52,22.80
2008,02,08,02,53,14.70
2008,02,08,02,54,15.20
2008,02,08,02,55,14.30
2008,02,08,02,56,23.80
2008,02,08,02,57,21.20
2008,02,08,02,58,16.90
2008,02,08,02,59,16.80
2008,02,08,03,00,14.90
2008,02,08,03,01,18.40
2008,02,08,03,02,12.60
2008,02,08,03,03,17.60
2008,02,08,03,04,12.30
2008,02,08,03,05,14.20
2008,02,08,03,06,10.50
2008,02,08,03,07,13.60
2008,02,08,03,08,9.80
2008,02,08,03,09,18.40
2008,02,08,03,10,13.40
2008,02,08,03,11,19.70
2008,02,08,03,12,10.90
2008,02,08,03,13,18.70
2008,02,08,03,14,20.60
2008,02,08,03,15,14.20
2008,02,08,03,16,16.90
2008,02,08,03,17,17.50
2008,02,08,03,18,13.10
2008,02,08,03,19,9.90
2008,02,08,03,20,14.20
2008,02,08,03,21,13.40
2008,02,08,03,22,16.50
2008,02,08,03,23,16.00
2008,02,08,03,24,17.80
2008,02,08,03,25,22.30
2008,02,08,03,26,20.80
2008,02,08,03,27,26.10
2008,02,08,03,28,11.50
2008,02,08,03,29,13.10
2008,02,08,03,30,10.00
2008,02,08,03,31,10.10
2008,02,08,03,32,13.10
2008,02,08,03,33,11.90
2008,02,08,03,34,27.70
2008,02,08,03,35,14.40
2008,02,08,03,36,12.70
2008,02,08,03,37,7.00
2008,02,08,03,38,13.20
2008,02,08,03,39,17.10
2008,02,08,03,40,10.60
2008,02,08,03,41,13.60
2008,02,08,03,42,14.60
2008,02,08,03,43,12.60
2008,02,08,03,44,11.90
2008,02,08,03,45,14.30
2008,02,08,03,46,17.00
2008,02,08,03,47,18.90
2008,02,08,03,48,23.70
2008,02,08,03,49,14.90
2008,02,08,03,50,13.60
2008,02,08,03,51,12.30
2008,02,08,03,52,18.20
2008,02,08,03,53,16.10
2008,02,08,03,54,11.30
2008,02,08,03,55,11.00
2008,02,08,03,56,10.10
2008,02,08,03,57,10.50
2008,02,08,03,58,12.50
2008,02,08,03,59,7.90
2008,02,08,04,00,10.30
2008,02,08,04,01,14.00
2008,02,08,04,02,21.40
2008,02,08,04,03,12.00
2008,02,08,04,04,12.20
2008,02,08,04,05,25.30
2008,02,08,04,06,15.30
2008,02,08,04,07,18.80
2008,02,08,04,08,19.50
2008,02,08,04,09,20.80
2008,02,08,04,10,23.50
2008,02,08,04,11,18.30
2008,02,08,04,12,18.20
2008,02,08,04,13,16.70
2008,02,08,04,14,15.70
2008,02,08,04,15,13.90
2008,02,08,04,16,22.70
2008,02,08,04,17,16.50
2008,02,08,04,18,9.20
2008,02,08,04,19,9.80
2008,02,08,04,20,21.70
2008,02,08,04,21,12.90
2008,02,08,04,22,6.60
2008,02,08,04,23,16.80
2008,02,08,04,24,10.20
2008,02,08,04,25,15.00
2008,02,08,04,26,11.50
2008,02,08,04,27,17.50
2008,02,08,04,28,16.90
2008,02,08,04,29,13.30
2008,02,08,04,30,14.00
2008,02,08,04,31,10.70
2008,02,08,04,32,18.80
2008,02,08,04,33,16.30
2008,02,08,04,34,11.10
2008,02,08,04,35,18.60
2008,02,08,04,36,21.20
2008,02,08,04,37,10.00
2008,02,08,04,38,14.40
2008,02,08,04,39,9.50
2008,02,08,04,40,15.80
2008,02,08,04,41,17.30
2008,02,08,04,42,18.20
2008,02,08,04,43,20.40
2008,02,08,04,44,15.30
2008,02,08,04,45,8.70
2008,02,08,04,46,10.60
2008,02,08,04,47,9.60
2008,02,08,04,48,11.70
2008,02,08,04,49,8.00
2008,02,08,04,50,14.30
2008,02,08,04,51,10.70
2008,02,08,04,52,19.60
2008,02,08,04,53,14.60
2008,02,08,04,54,15.40
2008,02,08,04,55,26.90
2008,02,08,04,56,24.70
2008,02,08,04,57,15.30
2008,02,08,04,58,21.50
2008,02,08,04,59,11.40
2008,02,08,05,00,5.90
2008,02,08,05,01,16.00
2008,02,08,05,02,9.20
2008,02,08,05,03,11.40
2008,02,08,05,04,11.90
2008,02,08,05,05,10.20
2008,02,08,05,06,12.60
2008,02,08,05,07,15.10
2008,02,08,05,08,12.80
2008,02,08,05,09,14.30
2008,02,08,05,10,12.30
2008,02,08,05,11,18.50
2008,02,08,05,12,16.00
2008,02,08,05,13,13.40
2008,02,08,05,14,11.00
2008,02,08,05,15,7.00
2008,02,08,05,16,4.70
2008,02,08,05,17,7.50
2008,02,08,05,18,8.60
2008,02,08,05,19,4.90
2008,02,08,05,20,10.20
2008,02,08,05,21,15.00
2008,02,08,05,22,8.80
2008,02,08,05,23,10.80
2008,02,08,05,24,17.60
2008,02,08,05,25,11.90
2008,02,08,05,26,6.80
2008,02,08,05,27,13.30
2008,02,08,05,28,1.30
2008,02,08,05,29,8.00
2008,02,08,05,30,13.80
2008,02,08,05,31,8.70
2008,02,08,05,32,17.60
2008,02,08,05,33,13.10
2008,02,08,05,34,8.40
2008,02,08,05,35,8.70
2008,02,08,05,36,12.30
2008,02,08,05,37,14.10
2008,02,08,05,38,15.50
2008,02,08,05,39,10.30
2008,02,08,05,40,9.40
2008,02,08,05,41,17.00
2008,02,08,05,42,15.60
2008,02,08,05,43,5.90
2008,02,08,05,44,17.50
2008,02,08,05,45,11.40
2008,02,08,05,46,11.00
2008,02,08,05,47,10.50
2008,02,08,05,48,16.00
2008,02,08,05,49,10.00
2008,02,08,05,50,11.40
2008,02,08,05,51,5.80
2008,02,08,05,52,8.80
2008,02,08,05,53,9.00
2008,02,08,05,54,5.90
2008,02,08,05,55,7.40
2008,02,08,05,56,10.80
2008,02,08,05,57,13.00
2008,02,08,05,58,11.80
2008,02,08,05,59,7.70
2008,02,08,06,00,10.60
2008,02,08,06,01,6.60
2008,02,08,06,02,9.00
2008,02,08,06,03,10.70
2008,02,08,06,04,9.80
2008,02,08,06,05,12.70
2008,02,08,06,06,12.10
2008,02,08,06,07,15.20
2008,02,08,06,08,8.00
2008,02,08,06,09,8.30
2008,02,08,06,10,14.00
2008,02,08,06,11,4.60
2008,02,08,06,12,15.00
2008,02,08,06,13,5.20
2008,02,08,06,14,12.70
2008,02,08,06,15,10.60
2008,02,08,06,16,4.20
2008,02,08,06,17,4.70
2008,02,08,06,18,4.20
2008,02,08,06,19,26.70
2008,02,08,06,20,19.00
2008,02,08,06,21,13.80
2008,02,08,06,22,16.30
2008,02,08,06,23,15.60
2008,02,08,06,24,8.90
2008,02,08,06,25,15.80
2008,02,08,06,26,17.10
2008,02,08,06,27,10.20
2008,02,08,06,28,18.70
2008,02,08,06,29,21.10
2008,02,08,06,30,10.10
2008,02,08,06,31,7.20
2008,02,08,06,32,6.60
2008,02,08,06,33,7.80
2008,02,08,06,34,14.30
2008,02,08,06,35,16.40
2008,02,08,06,36,16.30
2008,02,08,06,37,10.80
2008,02,08,06,38,9.80
2008,02,08,06,39,14.80
2008,02,08,06,40,19.00
2008,02,08,06,41,11.50
2008,02,08,06,42,19.30
2008,02,08,06,43,14.50
2008,02,08,06,44,8.90
2008,02,08,06,45,18.40
2008,02,08,06,46,12.10
2008,02,08,06,47,13.30
2008,02,08,06,48,15.30
2008,02,08,06,49,10.70
2008,02,08,06,50,13.40
2008,02,08,06,51,16.50
2008,02,08,06,52,11.90
2008,02,08,06,53,12.20
2008,02,08,06,54,11.20
2008,02,08,06,55,21.20
2008,02,08,06,56,11.20
2008,02,08,06,57,8.10
2008,02,08,06,58,16.90
2008,02,08,06,59,9.70
2008,02,08,07,00,13.60
2008,02,08,07,01,8.90
2008,02,08,07,02,14.10
2008,02,08,07,03,19.50
2008,02,08,07,04,10.60
2008,02,08,07,05,22.80
2008,02,08,07,06,14.90
2008,02,08,07,07,13.90
2008,02,08,07,08,16.70
2008,02,08,07,09,19.00
2008,02,08,07,10,14.30
2008,02,08,07,11,16.50
2008,02,08,07,12,15.80
2008,02,08,07,13,13.70
2008,02,08,07,14,11.80
2008,02,08,07,15,16.20
2008,02,08,07,16,30.30
2008,02,08,07,17,11.30
2008,02,08,07,18,16.30
2008,02,08,07,19,10.90
2008,02,08,07,20,20.40
2008,02,08,07,21,15.30
2008,02,08,07,22,16.80
2008,02,08,07,23,10.00
2008,02,08,07,24,14.30
2008,02,08,07,25,17.70
2008,02,08,07,26,14.40
2008,02,08,07,27,18.00
2008,02,08,07,28,5.90
2008,02,08,07,29,9.60
2008,02,08,07,30,16.10
2008,02,08,07,31,15.40
2008,02,08,07,32,19.20
2008,02,08,07,33,11.00
2008,02,08,07,34,10.70
2008,02,08,07,35,7.90
2008,02,08,07,36,15.30
2008,02,08,07,37,16.00
2008,02,08,07,38,11.80
2008,02,08,07,39,14.40
2008,02,08,07,40,16.00
2008,02,08,07,41,12.30
2008,02,08,07,42,18.80
2008,02,08,07,43,21.70
2008,02,08,07,44,9.80
2008,02,08,07,45,12.30
2008,02,08,07,46,9.90
2008,02,08,07,47,18.30
2008,02,08,07,48,10.90
2008,02,08,07,49,18.90
2008,02,08,07,50,17.00
2008,02,08,07,51,16.20
2008,02,08,07,52,9.70
2008,02,08,07,53,9.50
2008,02,08,07,54,12.10
2008,02,08,07,55,15.80
2008,02,08,07,56,11.20
2008,02,08,07,57,5.90
2008,02,08,07,58,9.70
2008,02,08,07,59,19.60
2008,02,08,08,00,19.10
2008,02,08,08,01,20.70
2008,02,08,08,02,12.70
2008,02,08,08,03,9.10
2008,02,08,08,04,8.70
2008,02,08,08,05,7.50
2008,02,08,08,06,10.60
2008,02,08,08,07,15.30
2008,02,08,08,08,16.80
2008,02,08,08,09,13.00
2008,02,08,08,10,9.20
2008,02,08,08,11,5.10
2008,02,08,08,12,7.20
2008,02,08,08,13,17.90
2008,02,08,08,14,10.40
2008,02,08,08,15,16.70
2008,02,08,08,16,15.10
2008,02,08,08,17,12.50
2008,02,08,08,18,18.80
2008,02,08,08,19,14.80
2008,02,08,08,20,19.60
2008,02,08,08,21,18.20
2008,02,08,08,22,8.70
2008,02,08,08,23,9.60
2008,02,08,08,24,12.40
2008,02,08,08,25,17.20
2008,02,08,08,26,10.90
2008,02,08,08,27,7.70
2008,02,08,08,28,5.90
2008,02,08,08,29,9.40
2008,02,08,08,30,7.00
2008,02,08,08,31,8.20
2008,02,08,08,32,9.60
2008,02,08,08,33,7.10
2008,02,08,08,34,14.50
2008,02,08,08,35,18.90
2008,02,08,08,36,21.20
2008,02,08,08,37,10.10
2008,02,08,08,38,8.00
2008,02,08,08,39,9.00
2008,02,08,08,40,11.30
2008,02,08,08,41,11.90
2008,02,08,08,42,8.80
2008,02,08,08,43,11.70
2008,02,08,08,44,15.30
2008,02,08,08,45,10.00
2008,02,08,08,46,10.20
2008,02,08,08,47,17.80
2008,02,08,08,48,11.10
2008,02,08,08,49,17.00
2008,02,08,08,50,9.60
2008,02,08,08,51,11.80
2008,02,08,08,52,9.10
2008,02,08,08,53,9.10
2008,02,08,08,54,3.80
2008,02,08,08,55,16.90
2008,02,08,08,56,9.30
2008,02,08,08,57,11.40
2008,02,08,08,58,8.60
2008,02,08,08,59,16.60
2008,02,08,09,00,13.90
2008,02,08,09,01,9.40
2008,02,08,09,02,10.90
2008,02,08,09,03,8.00
2008,02,08,09,04,19.20
2008,02,08,09,05,14.50
2008,02,08,09,06,16.60
2008,02,08,09,07,8.50
2008,02,08,09,08,11.50
2008,02,08,09,09,10.30
2008,02,08,09,10,9.50
2008,02,08,09,11,14.20
2008,02,08,09,12,18.30
2008,02,08,09,13,17.30
2008,02,08,09,14,10.30
2008,02,08,09,15,12.80
2008,02,08,09,16,12.00
2008,02,08,09,17,16.70
2008,02,08,09,18,12.20
2008,02,08,09,19,15.30
2008,02,08,09,20,13.50
2008,02,08,09,21,11.10
2008,02,08,09,22,10.80
2008,02,08,09,23,14.00
2008,02,08,09,24,16.00
2008,02,08,09,25,10.00
2008,02,08,09,26,13.40
2008,02,08,09,27,12.50
2008,02,08,09,28,12.50
2008,02,08,09,29,8.60
2008,02,08,09,30,6.50
2008,02,08,09,31,9.80
2008,02,08,09,32,13.00
2008,02,08,09,33,12.00
2008,02,08,09,34,7.70
2008,02,08,09,35,15.90
2008,02,08,09,36,14.00
2008,02,08,09,37,7.80
2008,02,08,09,38,4.70
2008,02,08,09,39,12.60
2008,02,08,09,40,9.70
2008,02,08,09,41,13.00
2008,02,08,09,42,14.70
2008,02,08,09,43,7.90
2008,02,08,09,44,6.70
2008,02,08,09,45,8.90
2008,02,08,09,46,12.40
2008,02,08,09,47,15.20
2008,02,08,09,48,17.70
2008,02,08,09,49,12.10
2008,02,08,09,50,14.60
2008,02,08,09,51,18.20
2008,02,08,09,52,17.70
2008,02,08,09,53,15.10
2008,02,08,09,54,19.30
2008,02,08,09,55,13.00
2008,02,08,09,56,11.30
2008,02,08,09,57,6.20
2008,02,08,09,58,17.80
2008,02,08,09,59,18.10
2008,02,08,10,00,12.30
2008,02,08,10,01,10.70
2008,02,08,10,02,7.60
2008,02,08,10,03,6.70
2008,02,08,10,04,9.90
2008,02,08,10,05,12.60
2008,02,08,10,06,6.40
2008,02,08,10,07,8.00
2008,02,08,10,08,17.00
2008,02,08,10,09,12.50
2008,02,08,10,10,11.20
2008,02,08,10,11,9.50
2008,02,08,10,12,15.60
2008,02,08,10,13,18.80
2008,02,08,10,14,13.90
2008,02,08,10,15,18.50
2008,02,08,10,16,8.00
2008,02,08,10,17,14.40
2008,02,08,10,18,8.90
2008,02,08,10,19,9.80
2008,02,08,10,20,5.70
2008,02,08,10,21,10.90
2008,02,08,10,22,8.00
2008,02,08,10,23,17.60
2008,02,08,10,24,11.20
2008,02,08,10,25,10.80
2008,02,08,10,26,8.90
2008,02,08,10,27,6.80
2008,02,08,10,28,13.00
2008,02,08,10,29,15.90
2008,02,08,10,30,10.90
2008,02,08,10,31,14.10
2008,02,08,10,32,10.90
2008,02,08,10,33,10.10
2008,02,08,10,34,6.40
2008,02,08,10,35,5.30
2008,02,08,10,36,6.60
2008,02,08,10,37,6.00
2008,02,08,10,38,10.00
2008,02,08,10,39,8.50
2008,02,08,10,40,9.80
2008,02,08,10,41,4.40
2008,02,08,10,42,9.80
2008,02,08,10,43,9.60
2008,02,08,10,44,10.50
2008,02,08,10,45,9.80
2008,02,08,10,46,9.80
2008,02,08,10,47,9.30
2008,02,08,10,48,4.10
2008,02,08,10,49,9.90
2008,02,08,10,50,13.30
2008,02,08,10,51,7.00
2008,02,08,10,52,10.10
2008,02,08,10,53,8.30
2008,02,08,10,54,3.80
2008,02,08,10,55,6.30
2008,02,08,10,56,2.50
2008,02,08,10,57,7.90
2008,02,08,10,58,10.30
2008,02,08,10,59,7.60
2008,02,08,11,00,15.70
2008,02,08,11,01,11.00
2008,02,08,11,02,11.80
2008,02,08,11,03,17.10
2008,02,08,11,04,10.60
2008,02,08,11,05,7.50
2008,02,08,11,06,9.00
2008,02,08,11,07,6.30
2008,02,08,11,08,7.40
2008,02,08,11,09,8.60
2008,02,08,11,10,7.60
2008,02,08,11,11,4.40
2008,02,08,11,12,6.10
2008,02,08,11,13,14.20
2008,02,08,11,14,14.60
2008,02,08,11,15,12.60
2008,02,08,11,16,13.70
2008,02,08,11,17,7.30
2008,02,08,11,18,12.60
2008,02,08,11,19,9.80
2008,02,08,11,20,7.20
2008,02,08,11,21,13.50
2008,02,08,11,22,12.70
2008,02,08,11,23,15.70
2008,02,08,11,24,13.90
2008,02,08,11,25,11.70
2008,02,08,11,26,13.80
2008,02,08,11,27,11.00
2008,02,08,11,28,8.00
2008,02,08,11,29,6.10
2008,02,08,11,30,9.40
2008,02,08,11,31,10.20
2008,02,08,11,32,10.80
2008,02,08,11,33,11.00
2008,02,08,11,34,16.30
2008,02,08,11,35,15.70
2008,02,08,11,36,12.30
2008,02,08,11,37,13.30
2008,02,08,11,38,6.80
2008,02,08,11,39,8.10
2008,02,08,11,40,6.40
2008,02,08,11,41,9.30
2008,02,08,11,42,18.80
2008,02,08,11,43,16.40
2008,02,08,11,44,8.00
2008,02,08,11,45,8.00
2008,02,08,11,46,9.80
2008,02,08,11,47,8.00
2008,02,08,11,48,13.20
2008,02,08,11,49,10.10
2008,02,08,11,50,6.00
2008,02,08,11,51,12.50
2008,02,08,11,52,7.80
2008,02,08,11,53,11.80
2008,02,08,11,54,8.20
2008,02,08,11,55,21.40
2008,02,08,11,56,10.00
2008,02,08,11,57,11.30
2008,02,08,11,58,6.80
2008,02,08,11,59,7.60
2008,02,08,12,00,8.10
2008,02,08,12,01,13.90
2008,02,08,12,02,6.90
2008,02,08,12,03,2.00
2008,02,08,12,04,10.90
2008,02,08,12,05,10.10
2008,02,08,12,06,9.40
2008,02,08,12,07,9.60
2008,02,08,12,08,4.00
2008,02,08,12,09,3.20
2008,02,08,12,10,10.70
2008,02,08,12,11,13.20
2008,02,08,12,12,7.20
2008,02,08,12,13,9.30
2008,02,08,12,14,11.10
2008,02,08,12,15,6.90
2008,02,08,12,16,6.20
2008,02,08,12,17,3.00
2008,02,08,12,18,4.60
2008,02,08,12,19,14.50
2008,02,08,12,20,6.70
2008,02,08,12,21,8.80
2008,02,08,12,22,8.90
2008,02,08,12,23,5.10
2008,02,08,12,24,12.40
2008,02,08,12,25,18.00
2008,02,08,12,26,4.80
2008,02,08,12,27,5.70
2008,02,08,12,28,6.00
2008,02,08,12,29,5.80
2008,02,08,12,30,2.10
2008,02,08,12,31,5.60
2008,02,08,12,32,9.30
2008,02,08,12,33,5.30
2008,02,08,12,34,9.30
2008,02,08,12,35,4.50
2008,02,08,12,36,4.10
2008,02,08,12,37,4.10
2008,02,08,12,38,1.60
2008,02,08,12,39,5.50
2008,02,08,12,40,7.70
2008,02,08,12,41,8.50
2008,02,08,12,42,5.20
2008,02,08,12,43,6.50
2008,02,08,12,44,4.40
2008,02,08,12,45,3.00
2008,02,08,12,46,5.70
2008,02,08,12,47,3.90
2008,02,08,12,48,7.00
2008,02,08,12,49,8.70
2008,02,08,12,50,4.80
2008,02,08,12,51,1.90
2008,02,08,12,52,5.90
2008,02,08,12,53,10.60
2008,02,08,12,54,10.40
2008,02,08,12,55,10.30
2008,02,08,12,56,6.00
2008,02,08,12,57,6.90
2008,02,08,12,58,3.50
2008,02,08,12,59,6.30
2008,02,08,13,00,5.10
2008,02,08,13,01,8.40
2008,02,08,13,02,8.90
2008,02,08,13,03,9.30
2008,02,08,13,04,5.40
2008,02,08,13,05,5.80
2008,02,08,13,06,1.90
2008,02,08,13,07,4.10
2008,02,08,13,08,8.50
2008,02,08,13,09,5.60
2008,02,08,13,10,2.00
2008,02,08,13,11,7.50
2008,02,08,13,12,6.30
2008,02,08,13,13,7.90
2008,02,08,13,14,10.20
2008,02,08,13,15,8.30
2008,02,08,13,16,9.40
2008,02,08,13,17,12.20
2008,02,08,13,18,6.30
2008,02,08,13,19,8.50
2008,02,08,13,20,7.30
2008,02,08,13,21,7.00
2008,02,08,13,22,5.40
2008,02,08,13,23,6.80
2008,02,08,13,24,7.40
2008,02,08,13,25,3.00
2008,02,08,13,26,2.90
2008,02,08,13,27,8.40
2008,02,08,13,28,7.40
2008,02,08,13,29,13.50
2008,02,08,13,30,15.30
2008,02,08,13,31,15.10
2008,02,08,13,32,8.10
2008,02,08,13,33,8.00
2008,02,08,13,34,5.90
2008,02,08,13,35,3.10
2008,02,08,13,36,9.30
2008,02,08,13,37,12.10
2008,02,08,13,38,7.50
2008,02,08,13,39,6.70
2008,02,08,13,40,8.20
2008,02,08,13,41,4.00
2008,02,08,13,42,13.80
2008,02,08,13,43,6.60
2008,02,08,13,44,6.70
2008,02,08,13,45,8.50
2008,02,08,13,46,5.70
2008,02,08,13,47,9.40
2008,02,08,13,48,10.50
2008,02,08,13,49,9.90
2008,02,08,13,50,13.50
2008,02,08,13,51,10.60
2008,02,08,13,52,6.10
2008,02,08,13,53,4.90
2008,02,08,13,54,3.10
2008,02,08,13,55,4.40
2008,02,08,13,56,8.10
2008,02,08,13,57,9.20
2008,02,08,13,58,5.90
2008,02,08,13,59,8.80
2008,02,08,14,00,8.40
2008,02,08,14,01,8.00
2008,02,08,14,02,8.60
2008,02,08,14,03,4.30
2008,02,08,14,04,3.50
2008,02,08,14,05,2.50
2008,02,08,14,06,6.40
2008,02,08,14,07,9.80
2008,02,08,14,08,11.30
2008,02,08,14,09,8.00
2008,02,08,14,10,5.20
2008,02,08,14,11,6.80
2008,02,08,14,12,7.90
2008,02,08,14,13,6.30
2008,02,08,14,14,3.70
2008,02,08,14,15,7.20
2008,02,08,14,16,8.00
2008,02,08,14,17,2.50
2008,02,08,14,18,3.40
2008,02,08,14,19,4.30
2008,02,08,14,20,5.20
2008,02,08,14,21,6.40
2008,02,08,14,22,12.70
2008,02,08,14,23,5.70
2008,02,08,14,24,9.30
2008,02,08,14,25,8.00
2008,02,08,14,26,12.60
2008,02,08,14,27,6.00
2008,02,08,14,28,17.80
2008,02,08,14,29,12.40
2008,02,08,14,30,5.10
2008,02,08,14,31,4.60
2008,02,08,14,32,3.30
2008,02,08,14,33,4.90
2008,02,08,14,34,9.00
2008,02,08,14,35,10.00
2008,02,08,14,36,8.70
2008,02,08,14,37,5.80
2008,02,08,14,38,4.50
2008,02,08,14,39,5.10
2008,02,08,14,40,4.80
2008,02,08,14,41,5.20
2008,02,08,14,42,4.70
2008,02,08,14,43,7.10
2008,02,08,14,44,10.70
2008,02,08,14,45,11.20
2008,02,08,14,46,9.70
2008,02,08,14,47,8.10
2008,02,08,14,48,7.50
2008,02,08,14,49,4.70
2008,02,08,14,50,11.60
2008,02,08,14,51,10.60
2008,02,08,14,52,7.40
2008,02,08,14,53,5.40
2008,02,08,14,54,3.10
2008,02,08,14,55,4.10
2008,02,08,14,56,2.70
2008,02,08,14,57,7.10
2008,02,08,14,58,8.10
2008,02,08,14,59,5.90
2008,02,08,15,00,5.00
2008,02,08,15,01,4.30
2008,02,08,15,02,4.00
2008,02,08,15,03,2.40
2008,02,08,15,04,1.70
2008,02,08,15,05,3.40
2008,02,08,15,06,8.20
2008,02,08,15,07,9.50
2008,02,08,15,08,7.70
2008,02,08,15,09,6.80
2008,02,08,15,10,5.10
2008,02,08,15,11,3.50
2008,02,08,15,12,2.90
2008,02,08,15,13,4.40
2008,02,08,15,14,3.70
2008,02,08,15,15,7.60
2008,02,08,15,16,7.20
2008,02,08,15,17,6.20
2008,02,08,15,18,6.90
2008,02,08,15,19,8.20
2008,02,08,15,20,7.10
2008,02,08,15,21,3.30
2008,02,08,15,22,4.20
2008,02,08,15,23,5.90
2008,02,08,15,24,7.20
2008,02,08,15,25,2.10
2008,02,08,15,26,2.00
2008,02,08,15,27,6.50
2008,02,08,15,28,6.40
2008,02,08,15,29,3.60
2008,02,08,15,30,4.90
2008,02,08,15,31,5.20
2008,02,08,15,32,7.40
2008,02,08,15,33,5.70
2008,02,08,15,34,4.70
2008,02,08,15,35,5.20
2008,02,08,15,36,5.90
2008,02,08,15,37,3.30
2008,02,08,15,38,3.80
2008,02,08,15,39,4.30
2008,02,08,15,40,3.80
2008,02,08,15,41,2.70
2008,02,08,15,42,3.70
2008,02,08,15,43,2.10
2008,02,08,15,44,2.80
2008,02,08,15,45,1.60
2008,02,08,15,46,2.90
2008,02,08,15,47,1.00
2008,02,08,15,48,2.70
2008,02,08,15,49,2.60
2008,02,08,15,50,5.20
2008,02,08,15,51,4.90
2008,02,08,15,52,1.00
2008,02,08,15,53,1.00
2008,02,08,15,54,2.00
2008,02,08,15,55,4.70
2008,02,08,15,56,4.00
2008,02,08,15,57,3.30
2008,02,08,15,58,3.90
2008,02,08,15,59,2.20
2008,02,08,16,00,2.90
2008,02,08,16,01,3.70
2008,02,08,16,02,0.20
2008,02,08,16,03,0.20
2008,02,08,16,04,4.60
2008,02,08,16,05,1.60
2008,02,08,16,06,2.60
2008,02,08,16,07,2.80
2008,02,08,16,08,4.10
2008,02,08,16,09,3.00
2008,02,08,16,10,3.80
2008,02,08,16,11,2.90
2008,02,08,16,12,0.00
2008,02,08,16,13,0.20
2008,02,08,16,14,0.00
2008,02,08,16,15,0.00
2008,02,08,16,16,2.80
2008,02,08,16,17,0.20
2008,02,08,16,18,2.00
2008,02,08,16,19,1.20
2008,02,08,16,20,0.60
2008,02,08,16,21,2.90
2008,02,08,16,22,0.20
2008,02,08,16,23,0.00
2008,02,08,16,24,0.10
2008,02,08,16,25,0.00
2008,02,08,16,26,0.00
2008,02,08,16,27,0.00
2008,02,08,16,28,0.00
2008,02,08,16,29,0.70
2008,02,08,16,30,0.40
2008,02,08,16,31,0.00
2008,02,08,16,32,0.00
2008,02,08,16,33,2.70
2008,02,08,16,34,1.30
2008,02,08,16,35,1.40
2008,02,08,16,36,0.40
2008,02,08,16,37,0.00
2008,02,08,16,38,0.00
2008,02,08,16,39,0.00
2008,02,08,16,40,0.40
2008,02,08,16,41,0.00
2008,02,08,16,42,0.00
2008,02,08,16,43,0.00
2008,02,08,16,44,0.90
2008,02,08,16,45,0.20
2008,02,08,16,46,1.60
2008,02,08,16,47,0.00
2008,02,08,16,48,0.00
2008,02,08,16,49,0.00
2008,02,08,16,50,0.00
2008,02,08,16,51,0.00
2008,02,08,16,52,1.90
2008,02,08,16,53,2.40
2008,02,08,16,54,0.10
2008,02,08,16,55,1.60
2008,02,08,16,56,0.00
2008,02,08,16,57,0.00
2008,02,08,16,58,0.00
2008,02,08,16,59,0.10
2008,02,08,17,00,0.00
2008,02,08,17,01,0.30
2008,02,08,17,02,0.90
2008,02,08,17,03,0.00
2008,02,08,17,04,0.00
2008,02,08,17,05,0.00
2008,02,08,17,06,0.00
2008,02,08,17,07,0.00
2008,02,08,17,08,1.30
2008,02,08,17,09,3.80
2008,02,08,17,10,2.40
2008,02,08,17,11,0.20
2008,02,08,17,12,0.00
2008,02,08,17,13,0.50
2008,02,08,17,14,0.00
2008,02,08,17,15,1.20
2008,02,08,17,16,0.40
2008,02,08,17,17,1.90
2008,02,08,17,18,2.60
2008,02,08,17,19,1.10
2008,02,08,17,20,1.10
2008,02,08,17,21,0.00
2008,02,08,17,22,0.00
2008,02,08,17,23,0.00
2008,02,08,17,24,0.20
2008,02,08,17,25,2.80
2008,02,08,17,26,0.20
2008,02,08,17,27,1.60
2008,02,08,17,28,1.10
2008,02,08,17,29,0.00
2008,02,08,17,30,0.00
2008,02,08,17,31,0.00
2008,02,08,17,32,0.00
2008,02,08,17,33,0.90
2008,02,08,17,34,0.70
2008,02,08,17,35,1.50
2008,02,08,17,36,0.00
2008,02,08,17,37,0.00
2008,02,08,17,38,0.20
2008,02,08,17,39,0.00
2008,02,08,17,40,0.00